When you browse on this site, cookies collect data to enhance your experience and personalize the content and advertising you see.
Visit our Privacy Policy to learn more. By continuing to use the site, you agree to this use of cookies and data.
  • In Belgien
  • Länderverzeichnis
  • Für 7 Tage
  • Wassertemperatur
  • Wetterkarte
  • Widgets
  • user-avatar
    Anmelden

    Stündliche Wetter Korçe

    Heute, 14 Oktober, Montag

    Zeit Temperatur Niederschläge Wind Luftdruck Luftfeuchtigkeit
    00:00 +14°C° 0 mm 1 m/S 671 mmHg 78%
    01:00 +13°C° 0 mm 1 m/S 671 mmHg 78%
    02:00 +13°C° 0 mm 1 m/S 671 mmHg 77%
    03:00 +13°C° 0 mm 1 m/S 670 mmHg 77%
    04:00 +13°C° 0 mm 1 m/S 670 mmHg 76%
    05:00 +13°C° 0 mm 1 m/S 670 mmHg 74%
    06:00 +14°C° 0 mm 1 m/S 671 mmHg 71%
    07:00 +15°C° 0 mm 1 m/S 671 mmHg 68%
    08:00 +18°C° 0 mm 1 m/S 672 mmHg 60%
    09:00 +20°C° 0 mm 1 m/S 672 mmHg 51%
    10:00 +21°C° 0 mm 0 m/S 673 mmHg 43%
    11:00 +23°C° 0 mm 1 m/S 673 mmHg 40%
    12:00 +24°C° 0 mm 1 m/S 673 mmHg 37%
    13:00 +25°C° 0 mm 1 m/S 673 mmHg 35%
    14:00 +24°C° 0 mm 1 m/S 672 mmHg 39%
    15:00 +23°C° 0 mm 1 m/S 672 mmHg 44%
    16:00 +22°C° 0 mm 1 m/S 671 mmHg 48%
    17:00 +20°C° 0 mm 1 m/S 671 mmHg 58%
    18:00 +18°C° 0 mm 1 m/S 671 mmHg 67%
    19:00 +15°C° 0 mm 1 m/S 670 mmHg 76%
    20:00 +15°C° 0 mm 1 m/S 670 mmHg 76%
    21:00 +13°C° 0 mm 0 m/S 670 mmHg 77%
    22:00 +13°C° 0 mm 0 m/S 670 mmHg 77%
    23:00 +13°C° 0 mm 0 m/S 670 mmHg 76%

    Morgen, 15 Oktober, Dienstag

    Zeit Temperatur Niederschläge Wind Luftdruck Luftfeuchtigkeit
    00:00 +14°C° 0 mm 1 m/S 670 mmHg 75%
    01:00 +13°C° 0 mm 1 m/S 669 mmHg 75%
    02:00 +13°C° 0 mm 1 m/S 669 mmHg 75%
    03:00 +12°C° 0 mm 0 m/S 669 mmHg 75%
    04:00 +12°C° 0 mm 0 m/S 668 mmHg 75%
    05:00 +12°C° 0 mm 0 m/S 669 mmHg 72%
    06:00 +13°C° 0 mm 0 m/S 669 mmHg 70%
    07:00 +14°C° 0 mm 0 m/S 670 mmHg 68%
    08:00 +16°C° 0 mm 0 m/S 670 mmHg 60%
    09:00 +20°C° 0 mm 1 m/S 671 mmHg 53%
    10:00 +22°C° 0 mm 1 m/S 671 mmHg 45%
    11:00 +23°C° 0 mm 1 m/S 671 mmHg 42%
    12:00 +23°C° 0 mm 1 m/S 671 mmHg 38%
    13:00 +24°C° 0 mm 2 m/S 671 mmHg 35%
    14:00 +23°C° 0 mm 2 m/S 670 mmHg 40%
    15:00 +21°C° 0 mm 2 m/S 670 mmHg 44%
    16:00 +20°C° 0 mm 2 m/S 669 mmHg 49%
    17:00 +19°C° 0 mm 1 m/S 669 mmHg 58%
    18:00 +16°C° 0 mm 1 m/S 668 mmHg 67%
    19:00 +14°C° 0 mm 1 m/S 668 mmHg 76%
    20:00 +14°C° 0 mm 1 m/S 668 mmHg 77%
    21:00 +13°C° 0 mm 0 m/S 668 mmHg 79%
    22:00 +12°C° 0 mm 0 m/S 668 mmHg 81%
    23:00 +12°C° 0 mm 0 m/S 668 mmHg 81%

    übermorgen, 16 Oktober, Mittwoch

    Zeit Temperatur Niederschläge Wind Luftdruck Luftfeuchtigkeit
    00:00 +12°C° 0 mm 0 m/S 668 mmHg 82%
    01:00 +12°C° 0 mm 0 m/S 668 mmHg 82%
    02:00 +11°C° 0 mm 0 m/S 668 mmHg 82%
    03:00 +11°C° 0 mm 0 m/S 667 mmHg 82%
    04:00 +11°C° 0 mm 0 m/S 667 mmHg 81%
    05:00 +12°C° 0 mm 0 m/S 668 mmHg 78%
    06:00 +12°C° 0 mm 0 m/S 668 mmHg 74%
    07:00 +13°C° 0 mm 0 m/S 668 mmHg 70%
    08:00 +16°C° 0 mm 1 m/S 669 mmHg 61%
    09:00 +19°C° 0 mm 1 m/S 669 mmHg 51%
    10:00 +21°C° 0 mm 1 m/S 670 mmHg 41%
    11:00 +22°C° 0 mm 1 m/S 670 mmHg 39%
    12:00 +21°C° 0 mm 2 m/S 670 mmHg 36%
    13:00 +23°C° 0 mm 2 m/S 670 mmHg 33%
    14:00 +21°C° 0 mm 2 m/S 669 mmHg 37%
    15:00 +20°C° 0 mm 2 m/S 669 mmHg 42%
    16:00 +19°C° 0 mm 2 m/S 669 mmHg 46%
    17:00 +17°C° 0 mm 2 m/S 668 mmHg 53%
    18:00 +16°C° 0 mm 1 m/S 668 mmHg 60%
    19:00 +14°C° 0 mm 1 m/S 668 mmHg 68%
    20:00 +13°C° 0 mm 1 m/S 668 mmHg 68%
    21:00 +13°C° 0 mm 1 m/S 668 mmHg 68%
    22:00 +12°C° 0 mm 0 m/S 668 mmHg 69%
    23:00 +12°C° 0 mm 0 m/S 668 mmHg 68%

    17 Oktober, Donnerstag

    Zeit Temperatur Niederschläge Wind Luftdruck Luftfeuchtigkeit
    00:00 +12°C° 0 mm 0 m/S 668 mmHg 67%
    01:00 +11°C° 0 mm 0 m/S 668 mmHg 66%
    02:00 +11°C° 0 mm 0 m/S 668 mmHg 65%
    03:00 +11°C° 0 mm 0 m/S 667 mmHg 64%
    04:00 +11°C° 0 mm 0 m/S 667 mmHg 63%
    05:00 +12°C° 0 mm 0 m/S 668 mmHg 62%
    06:00 +12°C° 0 mm 0 m/S 668 mmHg 60%
    07:00 +13°C° 0 mm 0 m/S 668 mmHg 59%
    08:00 +15°C° 0 mm 0 m/S 669 mmHg 51%
    09:00 +19°C° 0 mm 1 m/S 670 mmHg 44%
    10:00 +22°C° 0 mm 1 m/S 670 mmHg 37%
    11:00 +22°C° 0 mm 1 m/S 670 mmHg 34%
    12:00 +23°C° 0 mm 2 m/S 670 mmHg 32%
    13:00 +23°C° 0 mm 2 m/S 670 mmHg 29%
    14:00 +21°C° 0 mm 2 m/S 670 mmHg 33%
    15:00 +20°C° 0 mm 2 m/S 669 mmHg 37%
    16:00 +19°C° 0 mm 2 m/S 669 mmHg 42%
    17:00 +18°C° 0 mm 1 m/S 669 mmHg 46%
    18:00 +16°C° 0 mm 1 m/S 668 mmHg 51%
    19:00 +14°C° 0 mm 1 m/S 668 mmHg 56%
    20:00 +14°C° 0 mm 1 m/S 668 mmHg 57%
    21:00 +13°C° 0 mm 1 m/S 668 mmHg 58%
    22:00 +12°C° 0 mm 0 m/S 668 mmHg 58%
    23:00 +12°C° 0 mm 0 m/S 668 mmHg 58%

    18 Oktober, Freitag

    Zeit Temperatur Niederschläge Wind Luftdruck Luftfeuchtigkeit
    00:00 +11°C° 0 mm 0 m/S 668 mmHg 58%
    01:00 +11°C° 0 mm 0 m/S 668 mmHg 58%
    02:00 +11°C° 0 mm 0 m/S 668 mmHg 59%
    03:00 +11°C° 0 mm 0 m/S 668 mmHg 59%
    04:00 +11°C° 0 mm 1 m/S 668 mmHg 59%
    05:00 +11°C° 0 mm 0 m/S 668 mmHg 58%
    06:00 +12°C° 0 mm 0 m/S 668 mmHg 57%
    07:00 +12°C° 0 mm 0 m/S 669 mmHg 56%
    08:00 +15°C° 0 mm 0 m/S 669 mmHg 50%
    09:00 +17°C° 0 mm 0 m/S 670 mmHg 44%
    10:00 +19°C° 0 mm 0 m/S 671 mmHg 38%
    11:00 +22°C° 0 mm 1 m/S 670 mmHg 36%
    12:00 +22°C° 0 mm 1 m/S 670 mmHg 35%
    13:00 +23°C° 0 mm 1 m/S 670 mmHg 33%
    14:00 +22°C° 0 mm 1 m/S 670 mmHg 37%
    15:00 +21°C° 0 mm 1 m/S 670 mmHg 41%
    16:00 +20°C° 0 mm 1 m/S 669 mmHg 45%
    17:00 +18°C° 0 mm 1 m/S 669 mmHg 53%
    18:00 +15°C° 0 mm 1 m/S 668 mmHg 62%
    19:00 +13°C° 0 mm 1 m/S 668 mmHg 70%
    20:00 +13°C° 0 mm 1 m/S 668 mmHg 70%
    21:00 +13°C° 0 mm 1 m/S 668 mmHg 71%
    22:00 +12°C° 0 mm 0 m/S 668 mmHg 71%
    23:00 +12°C° 0 mm 1 m/S 668 mmHg 70%

    19 Oktober, Samstag

    Zeit Temperatur Niederschläge Wind Luftdruck Luftfeuchtigkeit
    00:00 +12°C° 0 mm 1 m/S 668 mmHg 69%
    01:00 +12°C° 0 mm 1 m/S 668 mmHg 68%
    02:00 +12°C° 0 mm 1 m/S 668 mmHg 68%
    03:00 +12°C° 0 mm 1 m/S 668 mmHg 68%
    04:00 +12°C° 0 mm 1 m/S 668 mmHg 67%
    05:00 +12°C° 0 mm 1 m/S 668 mmHg 66%
    06:00 +13°C° 0 mm 1 m/S 668 mmHg 65%
    07:00 +13°C° 0 mm 1 m/S 668 mmHg 63%
    08:00 +16°C° 0 mm 1 m/S 669 mmHg 56%
    09:00 +19°C° 0 mm 1 m/S 670 mmHg 49%
    10:00 +21°C° 0 mm 1 m/S 670 mmHg 41%
    11:00 +21°C° 0 mm 1 m/S 670 mmHg 39%
    12:00 +21°C° 0 mm 2 m/S 670 mmHg 37%
    13:00 +21°C° 0 mm 2 m/S 670 mmHg 35%
    14:00 +21°C° 0 mm 2 m/S 670 mmHg 40%
    15:00 +20°C° 0 mm 2 m/S 669 mmHg 45%
    16:00 +19°C° 0 mm 2 m/S 669 mmHg 49%
    17:00 +18°C° 0 mm 1 m/S 669 mmHg 59%
    18:00 +15°C° 0 mm 1 m/S 668 mmHg 69%
    19:00 +13°C° 0 mm 1 m/S 668 mmHg 78%
    20:00 +13°C° 0 mm 1 m/S 668 mmHg 79%
    21:00 +12°C° 0 mm 0 m/S 668 mmHg 80%
    22:00 +11°C° 0 mm 0 m/S 669 mmHg 81%
    23:00 +12°C° 0 mm 1 m/S 668 mmHg 81%
    Mehr zeigen